UTA541 USTR-USMU

Flight info

Callsign UTA541
Flight time N/A
Altitude 35000
Route N0460F350 LAKED L165 LUGIK A925 HMN R124 LARTU W77 REMKI
Aircraft B738/M-VGDW/C

Departure

Time N/A
Airport Roshchino International Airport (USTR)

Arrival

Time 2026-04-27 22:01
Airport Novy Urengoy Airport (USMU)
Time Latitude Longitude Altitude Speed Heading
2026-04-27 21:44 65.67114 75.81208 10669 ft 303 kts 28°
2026-04-27 21:44 65.68803 75.84172 10488 ft 295 kts 28°
2026-04-27 21:45 65.70415 75.87162 10342 ft 291 kts 37°
2026-04-27 21:45 65.71780 75.92238 10212 ft 291 kts 55°
2026-04-27 21:45 65.72385 75.95114 10126 ft 286 kts 56°
2026-04-27 21:45 65.73272 75.99370 9984 ft 279 kts 56°
2026-04-27 21:46 65.74148 76.03567 9698 ft 278 kts 55°
2026-04-27 21:46 65.75024 76.07746 9418 ft 276 kts 55°
2026-04-27 21:46 65.75884 76.11841 9151 ft 274 kts 55°
2026-04-27 21:46 65.76748 76.15957 8873 ft 272 kts 55°
2026-04-27 21:47 65.77607 76.20045 8595 ft 270 kts 55°
2026-04-27 21:47 65.78461 76.24111 8334 ft 269 kts 55°
2026-04-27 21:47 65.79308 76.28148 8090 ft 267 kts 54°
2026-04-27 21:47 65.80155 76.32191 7813 ft 267 kts 54°
2026-04-27 21:48 65.80994 76.36203 7535 ft 266 kts 54°
2026-04-27 21:48 65.81834 76.40228 7266 ft 266 kts 55°
2026-04-27 21:48 65.82668 76.44230 6996 ft 265 kts 55°
2026-04-27 21:48 65.83503 76.48246 6728 ft 264 kts 55°
2026-04-27 21:49 65.84332 76.52239 6467 ft 264 kts 55°
2026-04-27 21:49 65.85159 76.56230 6194 ft 263 kts 55°
2026-04-27 21:49 65.85986 76.60226 5908 ft 263 kts 55°
2026-04-27 21:49 65.86808 76.64212 5639 ft 262 kts 55°
2026-04-27 21:50 65.87616 76.68130 5385 ft 261 kts 55°
2026-04-27 21:50 65.88436 76.72118 5176 ft 257 kts 55°
2026-04-27 21:50 65.89238 76.76022 4930 ft 256 kts 55°
2026-04-27 21:50 65.90031 76.79896 4707 ft 254 kts 55°
2026-04-27 21:51 65.90810 76.83708 4467 ft 253 kts 55°
2026-04-27 21:51 65.91684 76.87365 4222 ft 247 kts 46°
2026-04-27 21:51 65.92395 76.91302 4048 ft 266 kts 78°
2026-04-27 21:51 65.92104 76.95910 4041 ft 278 kts 108°
2026-04-27 21:52 65.91433 77.00363 4038 ft 286 kts 108°
2026-04-27 21:52 65.90758 77.04982 4045 ft 289 kts 104°
2026-04-27 21:52 65.90637 77.09726 4033 ft 274 kts 68°
2026-04-27 21:52 65.91530 77.13550 4032 ft 248 kts 32°
2026-04-27 21:53 65.92938 77.15674 4061 ft 236 kts 18°
2026-04-27 21:53 65.94407 77.17557 4062 ft 240 kts 17°
2026-04-27 21:53 65.95927 77.19232 4058 ft 235 kts
2026-04-27 21:53 65.97446 77.19095 4037 ft 211 kts 330°
2026-04-27 21:54 65.98509 77.16921 3971 ft 192 kts 310°
2026-04-27 21:54 65.99253 77.14346 3848 ft 179 kts 299°
2026-04-27 21:54 65.99645 77.11546 3742 ft 169 kts 288°
2026-04-27 21:54 65.99918 77.08854 3681 ft 155 kts 289°
2026-04-27 21:55 66.00178 77.06317 3683 ft 152 kts 289°
2026-04-27 21:55 66.00390 77.04252 3684 ft 144 kts 290°
2026-04-27 21:55 66.00643 77.02058 3650 ft 142 kts 291°
2026-04-27 21:55 66.00941 76.99601 3180 ft 153 kts 290°
2026-04-27 21:56 66.01263 76.97008 2730 ft 159 kts 290°
2026-04-27 21:56 66.01922 76.91749 2099 ft 157 kts 290°
2026-04-27 21:56 66.02232 76.89284 2011 ft 144 kts 290°
2026-04-27 21:57 66.02523 76.86986 2021 ft 139 kts 290°
2026-04-27 21:57 66.02808 76.84736 2011 ft 136 kts 290°
2026-04-27 21:57 66.03094 76.82484 2030 ft 138 kts 290°
2026-04-27 21:57 66.03379 76.80239 2030 ft 135 kts 290°
2026-04-27 21:58 66.03650 76.78103 2036 ft 125 kts 290°
2026-04-27 21:58 66.03901 76.76126 2018 ft 120 kts 291°
2026-04-27 21:58 66.04153 76.74154 1968 ft 123 kts 291°
2026-04-27 21:58 66.04410 76.72143 1814 ft 122 kts 290°
2026-04-27 21:59 66.04659 76.70186 1639 ft 119 kts 290°
2026-04-27 21:59 66.04910 76.68225 1469 ft 121 kts 290°
2026-04-27 21:59 66.05165 76.66235 1294 ft 122 kts 290°
2026-04-27 21:59 66.05420 76.64240 1108 ft 122 kts 289°
2026-04-27 22:00 66.05677 76.62241 918 ft 122 kts 290°
2026-04-27 22:00 66.05930 76.60267 733 ft 119 kts 289°
2026-04-27 22:00 66.06175 76.58321 544 ft 118 kts 289°
2026-04-27 22:00 66.06428 76.56367 368 ft 118 kts 288°
2026-04-27 22:01 66.06678 76.54430 236 ft 119 kts 289°
2026-04-27 22:01 66.06911 76.52648 226 ft 89 kts 288°
2026-04-27 22:01 66.07037 76.51669 216 ft 35 kts 287°
2026-04-27 22:01 66.07108 76.51114 218 ft 31 kts 288°
2026-04-27 22:02 66.07166 76.50667 213 ft 16 kts 289°
2026-04-27 22:02 66.07238 76.50584 218 ft 13 kts 16°
2026-04-27 22:02 66.07322 76.50649 215 ft 11 kts 17°
2026-04-27 22:02 66.07366 76.50755 217 ft 10 kts 90°
2026-04-27 22:03 66.07348 76.50914 215 ft 9 kts 107°
2026-04-27 22:03 66.07328 76.51068 219 ft 9 kts 108°
2026-04-27 22:03 66.07308 76.51216 218 ft 9 kts 108°
2026-04-27 22:03 66.07289 76.51359 215 ft 9 kts 108°
2026-04-27 22:04 66.07270 76.51500 220 ft 8 kts 108°
2026-04-27 22:04 66.07253 76.51638 222 ft 8 kts 107°
2026-04-27 22:04 66.07236 76.51771 219 ft 8 kts 107°
2026-04-27 22:04 66.07220 76.51899 215 ft 8 kts 107°
2026-04-27 22:05 66.07204 76.52023 215 ft 7 kts 108°
2026-04-27 22:05 66.07181 76.52122 219 ft 7 kts 137°
2026-04-27 22:05 66.07145 76.52205 218 ft 7 kts 126°
2026-04-27 22:05 66.07127 76.52314 220 ft 7 kts 105°
2026-04-27 22:06 66.07113 76.52425 219 ft 7 kts 108°
2026-04-27 22:06 66.07100 76.52529 222 ft 6 kts 101°
2026-04-27 22:06 66.07116 76.52604 227 ft 4 kts 29°
2026-04-27 22:06 66.07140 76.52626 219 ft 3 kts 19°
2026-04-27 22:07 66.07151 76.52634 219 ft 1 kts 17°
2026-04-27 22:07 66.07154 76.52637 219 ft 0 kts 17°